TELKOM 4 (MERAH PUTIH)

Last updated on Oct. 21, 2020, 5:57 a.m. UTC

1 43587U 18064A   20294.83740309 -.00000356  00000-0  00000-0 0  9992
2 43587   0.0134 226.9632 0001374 350.3226 221.9179  1.00268266  8159
UTC
Height (km)
Latitude
Longitude
Inclination
Orbital Period
UTC large
Height (km)
Speed (km/s)
/
Latitude / Longitude
Inclination (degrees)
Orbital Period (minutes)
Azimuth
Elevation
Range (km)
Doppler Factor
iOS Compass Heading
iOS Angle

Next 30 passes for location: Hong Kong

Rise time Rise Azimuth (degrees) Set time Set Azimuth (degrees) Duration Max altitude (degrees)

No matching passes for this satellites